{"data":{"norad_id":44528,"intl_designator":"2019-059A","name":"ZY-1 02D","alt_names":[],"object_type":"PAYLOAD","status":"ACTIVE","operator":null,"country":"PRC","launch_date":"2019-09-12","launch_site_code":"TAISC","launch_vehicle":null,"mission":null,"orbit_class":"UNKNOWN","rcs_meters":null,"size_class":null,"mass_kg":null,"dimensions":null,"purposes":[],"wikipedia_slug":null,"has_3d_model":false,"image_url":null,"decayed_at":null,"tle_current":{"epoch":"2026-09-20T05:25:34.591584Z","epoch_age_seconds":85265,"freshness":"FRESH","line1":"1 44528U 19059A   26263.22609481  .00000081  00000+0  44019-4 0  9998","line2":"2 44528  98.6632 325.0717 0005395  91.5262 268.6541 14.35283036367970","mean_motion":14.35283036,"eccentricity":0.0005395,"inclination_deg":98.6632,"raan_deg":325.0717,"arg_perigee_deg":91.5262,"mean_anomaly_deg":268.6541,"bstar":4.4019e-5,"rev_number":36797,"period_min":100.32864347182,"perigee_km":770.2673155255,"apogee_km":777.98460726085,"semimajor_km":7152.2629613932,"source":"CELESTRAK","updated_at":"2026-09-20T09:00:14.531983Z"}}}